Year,Month,Day,Hour,Minute,Value (Times are PST for temperature in C)
2012,06,05,00,00,9.70
2012,06,05,00,01,9.70
2012,06,05,00,02,9.60
2012,06,05,00,03,9.60
2012,06,05,00,04,9.60
2012,06,05,00,05,9.60
2012,06,05,00,06,9.60
2012,06,05,00,07,9.60
2012,06,05,00,08,9.60
2012,06,05,00,09,9.60
2012,06,05,00,10,9.60
2012,06,05,00,11,9.60
2012,06,05,00,12,9.60
2012,06,05,00,13,9.60
2012,06,05,00,14,9.60
2012,06,05,00,15,9.60
2012,06,05,00,16,9.60
2012,06,05,00,17,9.60
2012,06,05,00,18,9.60
2012,06,05,00,19,9.60
2012,06,05,00,20,9.60
2012,06,05,00,21,9.50
2012,06,05,00,22,9.50
2012,06,05,00,23,9.50
2012,06,05,00,24,9.50
2012,06,05,00,25,9.50
2012,06,05,00,26,9.50
2012,06,05,00,27,9.40
2012,06,05,00,28,9.50
2012,06,05,00,29,9.40
2012,06,05,00,30,9.40
2012,06,05,00,31,9.40
2012,06,05,00,32,9.40
2012,06,05,00,33,9.40
2012,06,05,00,34,9.40
2012,06,05,00,35,9.40
2012,06,05,00,36,9.40
2012,06,05,00,37,9.40
2012,06,05,00,38,9.40
2012,06,05,00,39,9.40
2012,06,05,00,40,9.40
2012,06,05,00,41,9.40
2012,06,05,00,42,9.40
2012,06,05,00,43,9.40
2012,06,05,00,44,9.40
2012,06,05,00,45,9.40
2012,06,05,00,46,9.40
2012,06,05,00,47,9.40
2012,06,05,00,48,9.40
2012,06,05,00,49,9.40
2012,06,05,00,50,9.40
2012,06,05,00,51,9.40
2012,06,05,00,52,9.30
2012,06,05,00,53,9.30
2012,06,05,00,54,9.30
2012,06,05,00,55,9.40
2012,06,05,00,56,9.40
2012,06,05,00,57,9.40
2012,06,05,00,58,9.40
2012,06,05,00,59,9.40
2012,06,05,01,00,9.40
2012,06,05,01,01,9.40
2012,06,05,01,02,9.40
2012,06,05,01,03,9.40
2012,06,05,01,04,9.40
2012,06,05,01,05,9.40
2012,06,05,01,06,9.40
2012,06,05,01,07,9.40
2012,06,05,01,08,9.40
2012,06,05,01,09,9.40
2012,06,05,01,10,9.40
2012,06,05,01,11,9.40
2012,06,05,01,12,9.50
2012,06,05,01,13,9.50
2012,06,05,01,14,9.50
2012,06,05,01,15,9.50
2012,06,05,01,16,9.50
2012,06,05,01,17,9.50
2012,06,05,01,18,9.50
2012,06,05,01,19,9.50
2012,06,05,01,20,9.50
2012,06,05,01,21,9.50
2012,06,05,01,22,9.50
2012,06,05,01,23,9.40
2012,06,05,01,24,9.40
2012,06,05,01,25,9.40
2012,06,05,01,26,9.40
2012,06,05,01,27,9.40
2012,06,05,01,28,9.40
2012,06,05,01,29,9.40
2012,06,05,01,30,9.40
2012,06,05,01,31,9.30
2012,06,05,01,32,9.30
2012,06,05,01,33,9.30
2012,06,05,01,34,9.30
2012,06,05,01,35,9.30
2012,06,05,01,36,9.30
2012,06,05,01,37,9.30
2012,06,05,01,38,9.30
2012,06,05,01,39,9.30
2012,06,05,01,40,9.30
2012,06,05,01,41,9.30
2012,06,05,01,42,9.30
2012,06,05,01,43,9.30
2012,06,05,01,44,9.30
2012,06,05,01,45,9.30
2012,06,05,01,46,9.30
2012,06,05,01,47,9.30
2012,06,05,01,48,9.30
2012,06,05,01,49,9.30
2012,06,05,01,50,9.30
2012,06,05,01,51,9.30
2012,06,05,01,52,9.30
2012,06,05,01,53,9.30
2012,06,05,01,54,9.30
2012,06,05,01,55,9.30
2012,06,05,01,56,9.30
2012,06,05,01,57,9.30
2012,06,05,01,58,9.30
2012,06,05,01,59,9.30
2012,06,05,02,00,9.30
2012,06,05,02,01,9.30
2012,06,05,02,02,9.30
2012,06,05,02,03,9.30
2012,06,05,02,04,9.30
2012,06,05,02,05,9.30
2012,06,05,02,06,9.30
2012,06,05,02,07,9.30
2012,06,05,02,08,9.30
2012,06,05,02,09,9.30
2012,06,05,02,10,9.30
2012,06,05,02,11,9.30
2012,06,05,02,12,9.30
2012,06,05,02,13,9.30
2012,06,05,02,14,9.30
2012,06,05,02,15,9.30
2012,06,05,02,16,9.20
2012,06,05,02,17,9.20
2012,06,05,02,18,9.20
2012,06,05,02,19,9.20
2012,06,05,02,20,9.20
2012,06,05,02,21,9.20
2012,06,05,02,22,9.20
2012,06,05,02,23,9.20
2012,06,05,02,24,9.20
2012,06,05,02,25,9.20
2012,06,05,02,26,9.10
2012,06,05,02,27,9.10
2012,06,05,02,28,9.10
2012,06,05,02,29,9.10
2012,06,05,02,30,9.10
2012,06,05,02,31,9.10
2012,06,05,02,32,9.10
2012,06,05,02,33,9.10
2012,06,05,02,34,9.10
2012,06,05,02,35,9.10
2012,06,05,02,36,9.10
2012,06,05,02,37,9.10
2012,06,05,02,38,9.10
2012,06,05,02,39,9.10
2012,06,05,02,40,9.10
2012,06,05,02,41,9.10
2012,06,05,02,42,9.10
2012,06,05,02,43,9.10
2012,06,05,02,44,9.20
2012,06,05,02,45,9.20
2012,06,05,02,46,9.20
2012,06,05,02,47,9.20
2012,06,05,02,48,9.20
2012,06,05,02,49,9.20
2012,06,05,02,50,9.10
2012,06,05,02,51,9.10
2012,06,05,02,52,9.10
2012,06,05,02,53,9.10
2012,06,05,02,54,9.10
2012,06,05,02,55,9.10
2012,06,05,02,56,9.10
2012,06,05,02,57,9.10
2012,06,05,02,58,9.10
2012,06,05,02,59,9.10
2012,06,05,03,00,9.10
2012,06,05,03,01,9.10
2012,06,05,03,02,9.10
2012,06,05,03,03,9.10
2012,06,05,03,04,9.10
2012,06,05,03,05,9.10
2012,06,05,03,06,9.10
2012,06,05,03,07,9.00
2012,06,05,03,08,9.00
2012,06,05,03,09,9.00
2012,06,05,03,10,9.00
2012,06,05,03,11,9.00
2012,06,05,03,12,9.00
2012,06,05,03,13,9.00
2012,06,05,03,14,9.00
2012,06,05,03,15,9.00
2012,06,05,03,16,9.00
2012,06,05,03,17,9.00
2012,06,05,03,18,9.00
2012,06,05,03,19,9.00
2012,06,05,03,20,8.90
2012,06,05,03,21,8.90
2012,06,05,03,22,8.90
2012,06,05,03,23,8.90
2012,06,05,03,24,8.90
2012,06,05,03,25,8.90
2012,06,05,03,26,8.90
2012,06,05,03,27,8.90
2012,06,05,03,28,8.90
2012,06,05,03,29,8.90
2012,06,05,03,30,8.90
2012,06,05,03,31,8.90
2012,06,05,03,32,9.00
2012,06,05,03,33,9.00
2012,06,05,03,34,9.00
2012,06,05,03,35,9.00
2012,06,05,03,36,9.00
2012,06,05,03,37,8.90
2012,06,05,03,38,8.90
2012,06,05,03,39,8.90
2012,06,05,03,40,8.90
2012,06,05,03,41,8.90
2012,06,05,03,42,8.90
2012,06,05,03,43,8.90
2012,06,05,03,44,8.90
2012,06,05,03,45,8.90
2012,06,05,03,46,8.90
2012,06,05,03,47,9.00
2012,06,05,03,48,9.00
2012,06,05,03,49,9.00
2012,06,05,03,50,9.00
2012,06,05,03,51,9.00
2012,06,05,03,52,9.00
2012,06,05,03,53,9.00
2012,06,05,03,54,9.00
2012,06,05,03,55,9.00
2012,06,05,03,56,9.00
2012,06,05,03,57,9.00
2012,06,05,03,58,9.00
2012,06,05,03,59,9.10
2012,06,05,04,00,9.10
2012,06,05,04,01,9.10
2012,06,05,04,02,9.10
2012,06,05,04,03,9.10
2012,06,05,04,04,9.10
2012,06,05,04,05,9.10
2012,06,05,04,06,9.10
2012,06,05,04,07,9.10
2012,06,05,04,08,9.10
2012,06,05,04,09,9.10
2012,06,05,04,10,9.10
2012,06,05,04,11,9.00
2012,06,05,04,12,9.00
2012,06,05,04,13,9.00
2012,06,05,04,14,9.00
2012,06,05,04,15,8.90
2012,06,05,04,16,8.90
2012,06,05,04,17,8.90
2012,06,05,04,18,8.90
2012,06,05,04,19,8.90
2012,06,05,04,20,8.90
2012,06,05,04,21,8.90
2012,06,05,04,22,8.90
2012,06,05,04,23,8.90
2012,06,05,04,24,8.90
2012,06,05,04,25,8.90
2012,06,05,04,26,8.90
2012,06,05,04,27,8.90
2012,06,05,04,28,8.90
2012,06,05,04,29,8.90
2012,06,05,04,30,8.90
2012,06,05,04,31,8.90
2012,06,05,04,32,8.90
2012,06,05,04,33,8.90
2012,06,05,04,34,8.90
2012,06,05,04,35,8.90
2012,06,05,04,36,8.90
2012,06,05,04,37,8.90
2012,06,05,04,38,8.90
2012,06,05,04,39,9.00
2012,06,05,04,40,9.00
2012,06,05,04,41,9.00
2012,06,05,04,42,9.00
2012,06,05,04,43,9.00
2012,06,05,04,44,8.90
2012,06,05,04,45,8.90
2012,06,05,04,46,8.90
2012,06,05,04,47,8.90
2012,06,05,04,48,8.90
2012,06,05,04,49,8.90
2012,06,05,04,50,8.90
2012,06,05,04,51,8.90
2012,06,05,04,52,8.90
2012,06,05,04,53,8.90
2012,06,05,04,54,8.90
2012,06,05,04,55,9.00
2012,06,05,04,56,9.00
2012,06,05,04,57,9.00
2012,06,05,04,58,9.00
2012,06,05,04,59,9.00
2012,06,05,05,00,9.00
2012,06,05,05,01,9.00
2012,06,05,05,02,9.00
2012,06,05,05,03,9.00
2012,06,05,05,04,9.10
2012,06,05,05,05,9.10
2012,06,05,05,06,9.10
2012,06,05,05,07,9.10
2012,06,05,05,08,9.10
2012,06,05,05,09,9.20
2012,06,05,05,10,9.20
2012,06,05,05,11,9.20
2012,06,05,05,12,9.30
2012,06,05,05,13,9.30
2012,06,05,05,14,9.30
2012,06,05,05,15,9.30
2012,06,05,05,16,9.40
2012,06,05,05,17,9.40
2012,06,05,05,18,9.40
2012,06,05,05,19,9.50
2012,06,05,05,20,9.50
2012,06,05,05,21,9.50
2012,06,05,05,22,9.60
2012,06,05,05,23,9.60
2012,06,05,05,24,9.60
2012,06,05,05,25,9.60
2012,06,05,05,26,9.60
2012,06,05,05,27,9.60
2012,06,05,05,28,9.70
2012,06,05,05,29,9.70
2012,06,05,05,30,9.80
2012,06,05,05,31,9.80
2012,06,05,05,32,9.80
2012,06,05,05,33,9.90
2012,06,05,05,34,9.90
2012,06,05,05,35,9.90
2012,06,05,05,36,9.90
2012,06,05,05,37,9.90
2012,06,05,05,38,9.90
2012,06,05,05,39,9.80
2012,06,05,05,40,9.80
2012,06,05,05,41,9.80
2012,06,05,05,42,9.80
2012,06,05,05,43,9.80
2012,06,05,05,44,9.80
2012,06,05,05,45,9.80
2012,06,05,05,46,9.90
2012,06,05,05,47,9.90
2012,06,05,05,48,9.90
2012,06,05,05,49,10.00
2012,06,05,05,50,10.00
2012,06,05,05,51,10.00
2012,06,05,05,52,10.00
2012,06,05,05,53,10.00
2012,06,05,05,54,10.00
2012,06,05,05,55,10.00
2012,06,05,05,56,10.10
2012,06,05,05,57,10.10
2012,06,05,05,58,10.10
2012,06,05,05,59,10.20
2012,06,05,06,00,10.20
2012,06,05,06,01,10.20
2012,06,05,06,02,10.20
2012,06,05,06,03,10.20
2012,06,05,06,04,10.30
2012,06,05,06,05,10.30
2012,06,05,06,06,10.30
2012,06,05,06,07,10.30
2012,06,05,06,08,10.40
2012,06,05,06,09,10.40
2012,06,05,06,10,10.40
2012,06,05,06,11,10.40
2012,06,05,06,12,10.40
2012,06,05,06,13,10.40
2012,06,05,06,14,10.40
2012,06,05,06,15,10.40
2012,06,05,06,16,10.50
2012,06,05,06,17,10.50
2012,06,05,06,18,10.60
2012,06,05,06,19,10.60
2012,06,05,06,20,10.60
2012,06,05,06,21,10.60
2012,06,05,06,22,10.60
2012,06,05,06,23,10.60
2012,06,05,06,24,10.60
2012,06,05,06,25,10.60
2012,06,05,06,26,10.60
2012,06,05,06,27,10.50
2012,06,05,06,28,10.40
2012,06,05,06,29,10.40
2012,06,05,06,30,10.40
2012,06,05,06,31,10.40
2012,06,05,06,32,10.40
2012,06,05,06,33,10.40
2012,06,05,06,34,10.40
2012,06,05,06,35,10.40
2012,06,05,06,36,10.40
2012,06,05,06,37,10.30
2012,06,05,06,38,10.30
2012,06,05,06,39,10.30
2012,06,05,06,40,10.30
2012,06,05,06,41,10.30
2012,06,05,06,42,10.20
2012,06,05,06,43,10.20
2012,06,05,06,44,10.20
2012,06,05,06,45,10.20
2012,06,05,06,46,10.20
2012,06,05,06,47,10.20
2012,06,05,06,48,10.20
2012,06,05,06,49,10.20
2012,06,05,06,50,10.20
2012,06,05,06,51,10.30
2012,06,05,06,52,10.30
2012,06,05,06,53,10.40
2012,06,05,06,54,10.40
2012,06,05,06,55,10.40
2012,06,05,06,56,10.40
2012,06,05,06,57,10.40
2012,06,05,06,58,10.40
2012,06,05,06,59,10.40
2012,06,05,07,00,10.50
2012,06,05,07,01,10.50
2012,06,05,07,02,10.50
2012,06,05,07,03,10.50
2012,06,05,07,04,10.60
2012,06,05,07,05,10.60
2012,06,05,07,06,10.60
2012,06,05,07,07,10.70
2012,06,05,07,08,10.70
2012,06,05,07,09,10.80
2012,06,05,07,10,10.80
2012,06,05,07,11,10.90
2012,06,05,07,12,11.00
2012,06,05,07,13,11.00
2012,06,05,07,14,11.10
2012,06,05,07,15,11.10
2012,06,05,07,16,11.20
2012,06,05,07,17,11.20
2012,06,05,07,18,11.20
2012,06,05,07,19,11.20
2012,06,05,07,20,11.20
2012,06,05,07,21,11.20
2012,06,05,07,22,11.30
2012,06,05,07,23,11.30
2012,06,05,07,24,11.30
2012,06,05,07,25,11.30
2012,06,05,07,26,11.30
2012,06,05,07,27,11.40
2012,06,05,07,28,11.40
2012,06,05,07,29,11.40
2012,06,05,07,30,11.40
2012,06,05,07,31,11.40
2012,06,05,07,32,11.40
2012,06,05,07,33,11.40
2012,06,05,07,34,11.40
2012,06,05,07,35,11.40
2012,06,05,07,36,11.50
2012,06,05,07,37,11.50
2012,06,05,07,38,11.50
2012,06,05,07,39,11.50
2012,06,05,07,40,11.60
2012,06,05,07,41,11.60
2012,06,05,07,42,11.60
2012,06,05,07,43,11.60
2012,06,05,07,44,11.60
2012,06,05,07,45,11.60
2012,06,05,07,46,11.60
2012,06,05,07,47,11.60
2012,06,05,07,48,11.60
2012,06,05,07,49,11.60
2012,06,05,07,50,11.60
2012,06,05,07,51,11.60
2012,06,05,07,52,11.60
2012,06,05,07,53,11.70
2012,06,05,07,54,11.70
2012,06,05,07,55,11.70
2012,06,05,07,56,11.70
2012,06,05,07,57,11.70
2012,06,05,07,58,11.70
2012,06,05,07,59,11.70
2012,06,05,08,00,11.70
2012,06,05,08,01,11.70
2012,06,05,08,02,11.70
2012,06,05,08,03,11.70
2012,06,05,08,04,11.70
2012,06,05,08,05,11.70
2012,06,05,08,06,11.70
2012,06,05,08,07,11.70
2012,06,05,08,08,11.70
2012,06,05,08,09,11.70
2012,06,05,08,10,11.70
2012,06,05,08,11,11.70
2012,06,05,08,12,11.70
2012,06,05,08,13,11.70
2012,06,05,08,14,11.70
2012,06,05,08,15,11.70
2012,06,05,08,16,11.60
2012,06,05,08,17,11.60
2012,06,05,08,18,11.70
2012,06,05,08,19,11.70
2012,06,05,08,20,11.70
2012,06,05,08,21,11.70
2012,06,05,08,22,11.70
2012,06,05,08,23,11.80
2012,06,05,08,24,11.80
2012,06,05,08,25,11.80
2012,06,05,08,26,11.80
2012,06,05,08,27,11.80
2012,06,05,08,28,11.80
2012,06,05,08,29,11.80
2012,06,05,08,30,11.80
2012,06,05,08,31,11.80
2012,06,05,08,32,11.80
2012,06,05,08,33,11.80
2012,06,05,08,34,11.80
2012,06,05,08,35,11.90
2012,06,05,08,36,11.90
2012,06,05,08,37,11.90
2012,06,05,08,38,11.90
2012,06,05,08,39,11.90
2012,06,05,08,40,11.80
2012,06,05,08,41,11.90
2012,06,05,08,42,11.90
2012,06,05,08,43,11.90
2012,06,05,08,44,11.90
2012,06,05,08,45,11.90
2012,06,05,08,46,11.90
2012,06,05,08,47,11.90
2012,06,05,08,48,11.90
2012,06,05,08,49,12.00
2012,06,05,08,50,12.00
2012,06,05,08,51,12.00
2012,06,05,08,52,12.00
2012,06,05,08,53,12.10
2012,06,05,08,54,12.10
2012,06,05,08,55,12.10
2012,06,05,08,56,12.10
2012,06,05,08,57,12.10
2012,06,05,08,58,12.10
2012,06,05,08,59,12.10
2012,06,05,09,00,12.10
2012,06,05,09,01,12.10
2012,06,05,09,02,12.10
2012,06,05,09,03,12.20
2012,06,05,09,04,12.20
2012,06,05,09,05,12.20
2012,06,05,09,06,12.20
2012,06,05,09,07,12.20
2012,06,05,09,08,12.20
2012,06,05,09,09,12.20
2012,06,05,09,10,12.20
2012,06,05,09,11,12.10
2012,06,05,09,12,12.10
2012,06,05,09,13,12.20
2012,06,05,09,14,12.20
2012,06,05,09,15,12.20
2012,06,05,09,16,12.20
2012,06,05,09,17,12.20
2012,06,05,09,18,12.20
2012,06,05,09,19,12.20
2012,06,05,09,20,12.20
2012,06,05,09,21,12.20
2012,06,05,09,22,12.20
2012,06,05,09,23,12.20
2012,06,05,09,24,12.20
2012,06,05,09,25,12.20
2012,06,05,09,26,12.20
2012,06,05,09,27,12.20
2012,06,05,09,28,12.20
2012,06,05,09,29,12.20
2012,06,05,09,30,12.20
2012,06,05,09,31,12.20
2012,06,05,09,32,12.20
2012,06,05,09,33,12.20
2012,06,05,09,34,12.20
2012,06,05,09,35,12.20
2012,06,05,09,36,12.20
2012,06,05,09,37,12.20
2012,06,05,09,38,12.20
2012,06,05,09,39,12.20
2012,06,05,09,40,12.20
2012,06,05,09,41,12.20
2012,06,05,09,42,12.30
2012,06,05,09,43,12.30
2012,06,05,09,44,12.30
2012,06,05,09,45,12.30
2012,06,05,09,46,12.30
2012,06,05,09,47,12.30
2012,06,05,09,48,12.30
2012,06,05,09,49,12.30
2012,06,05,09,50,12.30
2012,06,05,09,51,12.30
2012,06,05,09,52,12.40
2012,06,05,09,53,12.40
2012,06,05,09,54,12.40
2012,06,05,09,55,12.40
2012,06,05,09,56,12.40
2012,06,05,09,57,12.40
2012,06,05,09,58,12.40
2012,06,05,09,59,12.50
2012,06,05,10,00,12.50
2012,06,05,10,01,12.50
2012,06,05,10,02,12.60
2012,06,05,10,03,12.60
2012,06,05,10,04,12.60
2012,06,05,10,05,12.70
2012,06,05,10,06,12.70
2012,06,05,10,07,12.70
2012,06,05,10,08,12.70
2012,06,05,10,09,12.80
2012,06,05,10,10,12.80
2012,06,05,10,11,12.80
2012,06,05,10,12,12.80
2012,06,05,10,13,12.90
2012,06,05,10,14,12.90
2012,06,05,10,15,12.90
2012,06,05,10,16,12.90
2012,06,05,10,17,12.90
2012,06,05,10,18,13.00
2012,06,05,10,19,13.00
2012,06,05,10,20,13.00
2012,06,05,10,21,13.00
2012,06,05,10,22,13.00
2012,06,05,10,23,13.00
2012,06,05,10,24,13.00
2012,06,05,10,25,13.00
2012,06,05,10,26,13.00
2012,06,05,10,27,13.00
2012,06,05,10,28,13.10
2012,06,05,10,29,13.10
2012,06,05,10,30,13.10
2012,06,05,10,31,13.10
2012,06,05,10,32,13.20
2012,06,05,10,33,13.20
2012,06,05,10,34,13.20
2012,06,05,10,35,13.20
2012,06,05,10,36,13.20
2012,06,05,10,37,13.20
2012,06,05,10,38,13.30
2012,06,05,10,39,13.30
2012,06,05,10,40,13.30
2012,06,05,10,41,13.40
2012,06,05,10,42,13.40
2012,06,05,10,43,13.50
2012,06,05,10,44,13.50
2012,06,05,10,45,13.60
2012,06,05,10,46,13.60
2012,06,05,10,47,13.60
2012,06,05,10,48,13.60
2012,06,05,10,49,13.60
2012,06,05,10,50,13.60
2012,06,05,10,51,13.60
2012,06,05,10,52,13.70
2012,06,05,10,53,13.70
2012,06,05,10,54,13.80
2012,06,05,10,55,13.80
2012,06,05,10,56,13.90
2012,06,05,10,57,13.90
2012,06,05,10,58,14.00
2012,06,05,10,59,14.00
2012,06,05,11,00,14.10
2012,06,05,11,01,14.10
2012,06,05,11,02,14.10
2012,06,05,11,03,14.10
2012,06,05,11,04,14.10
2012,06,05,11,05,14.20
2012,06,05,11,06,14.20
2012,06,05,11,07,14.20
2012,06,05,11,08,14.30
2012,06,05,11,09,14.20
2012,06,05,11,10,14.20
2012,06,05,11,11,14.30
2012,06,05,11,12,14.30
2012,06,05,11,13,14.30
2012,06,05,11,14,14.30
2012,06,05,11,15,14.30
2012,06,05,11,16,14.30
2012,06,05,11,17,14.30
2012,06,05,11,18,14.30
2012,06,05,11,19,14.20
2012,06,05,11,20,14.20
2012,06,05,11,21,14.20
2012,06,05,11,22,14.20
2012,06,05,11,23,14.20
2012,06,05,11,24,14.30
2012,06,05,11,25,14.30
2012,06,05,11,26,14.30
2012,06,05,11,27,14.30
2012,06,05,11,28,14.40
2012,06,05,11,29,14.40
2012,06,05,11,30,14.40
2012,06,05,11,31,14.40
2012,06,05,11,32,14.40
2012,06,05,11,33,14.40
2012,06,05,11,34,14.40
2012,06,05,11,35,14.30
2012,06,05,11,36,14.30
2012,06,05,11,37,14.20
2012,06,05,11,38,14.20
2012,06,05,11,39,14.20
2012,06,05,11,40,14.20
2012,06,05,11,41,14.30
2012,06,05,11,42,14.30
2012,06,05,11,43,14.30
2012,06,05,11,44,14.40
2012,06,05,11,45,14.40
2012,06,05,11,46,14.40
2012,06,05,11,47,14.50
2012,06,05,11,48,14.50
2012,06,05,11,49,14.50
2012,06,05,11,50,14.50
2012,06,05,11,51,14.40
2012,06,05,11,52,14.40
2012,06,05,11,53,14.40
2012,06,05,11,54,14.40
2012,06,05,11,55,14.50
2012,06,05,11,56,14.50
2012,06,05,11,57,14.50
2012,06,05,11,58,14.60
2012,06,05,11,59,14.60
2012,06,05,12,00,14.70
2012,06,05,12,01,14.70
2012,06,05,12,02,14.80
2012,06,05,12,03,14.80
2012,06,05,12,04,14.90
2012,06,05,12,05,15.00
2012,06,05,12,06,15.00
2012,06,05,12,07,15.00
2012,06,05,12,08,15.00
2012,06,05,12,09,15.10
2012,06,05,12,10,15.20
2012,06,05,12,11,15.20
2012,06,05,12,12,15.30
2012,06,05,12,13,15.30
2012,06,05,12,14,15.30
2012,06,05,12,15,15.30
2012,06,05,12,16,15.20
2012,06,05,12,17,15.20
2012,06,05,12,18,15.20
2012,06,05,12,19,15.20
2012,06,05,12,20,15.20
2012,06,05,12,21,15.20
2012,06,05,12,22,15.20
2012,06,05,12,23,15.20
2012,06,05,12,24,15.20
2012,06,05,12,25,15.20
2012,06,05,12,26,15.20
2012,06,05,12,27,15.20
2012,06,05,12,28,15.10
2012,06,05,12,29,15.10
2012,06,05,12,30,15.20
2012,06,05,12,31,15.10
2012,06,05,12,32,15.00
2012,06,05,12,33,15.00
2012,06,05,12,34,15.00
2012,06,05,12,35,15.00
2012,06,05,12,36,15.00
2012,06,05,12,37,15.00
2012,06,05,12,38,15.00
2012,06,05,12,39,15.10
2012,06,05,12,40,15.20
2012,06,05,12,41,15.20
2012,06,05,12,42,15.10
2012,06,05,12,43,15.10
2012,06,05,12,44,15.00
2012,06,05,12,45,15.00
2012,06,05,12,46,15.10
2012,06,05,12,47,15.10
2012,06,05,12,48,15.20
2012,06,05,12,49,15.20
2012,06,05,12,50,15.30
2012,06,05,12,51,15.30
2012,06,05,12,52,15.30
2012,06,05,12,53,15.40
2012,06,05,12,54,15.50
2012,06,05,12,55,15.50
2012,06,05,12,56,15.60
2012,06,05,12,57,15.60
2012,06,05,12,58,15.50
2012,06,05,12,59,15.50
2012,06,05,13,00,15.40
2012,06,05,13,01,15.20
2012,06,05,13,02,15.20
2012,06,05,13,03,15.10
2012,06,05,13,04,15.20
2012,06,05,13,05,15.20
2012,06,05,13,06,15.20
2012,06,05,13,07,15.20
2012,06,05,13,08,15.20
2012,06,05,13,09,15.20
2012,06,05,13,10,15.20
2012,06,05,13,11,15.30
2012,06,05,13,12,15.30
2012,06,05,13,13,15.30
2012,06,05,13,14,15.40
2012,06,05,13,15,15.40
2012,06,05,13,16,15.40
2012,06,05,13,17,15.40
2012,06,05,13,18,15.40
2012,06,05,13,19,15.40
2012,06,05,13,20,15.40
2012,06,05,13,21,15.40
2012,06,05,13,22,15.30
2012,06,05,13,23,15.20
2012,06,05,13,24,15.20
2012,06,05,13,25,15.20
2012,06,05,13,26,15.20
2012,06,05,13,27,15.30
2012,06,05,13,28,15.30
2012,06,05,13,29,15.30
2012,06,05,13,30,15.30
2012,06,05,13,31,15.30
2012,06,05,13,32,15.40
2012,06,05,13,33,15.50
2012,06,05,13,34,15.50
2012,06,05,13,35,15.40
2012,06,05,13,36,15.30
2012,06,05,13,37,15.30
2012,06,05,13,38,15.30
2012,06,05,13,39,15.30
2012,06,05,13,40,15.30
2012,06,05,13,41,15.30
2012,06,05,13,42,15.30
2012,06,05,13,43,15.40
2012,06,05,13,44,15.40
2012,06,05,13,45,15.40
2012,06,05,13,46,15.40
2012,06,05,13,47,15.50
2012,06,05,13,48,15.50
2012,06,05,13,49,15.50
2012,06,05,13,50,15.60
2012,06,05,13,51,15.60
2012,06,05,13,52,15.60
2012,06,05,13,53,15.60
2012,06,05,13,54,15.60
2012,06,05,13,55,15.60
2012,06,05,13,56,15.50
2012,06,05,13,57,15.50
2012,06,05,13,58,15.50
2012,06,05,13,59,15.50
2012,06,05,14,00,15.40
2012,06,05,14,01,15.30
2012,06,05,14,02,15.30
2012,06,05,14,03,15.20
2012,06,05,14,04,15.30
2012,06,05,14,05,15.30
2012,06,05,14,06,15.30
2012,06,05,14,07,15.30
2012,06,05,14,08,15.40
2012,06,05,14,09,15.40
2012,06,05,14,10,15.40
2012,06,05,14,11,15.40
2012,06,05,14,12,15.50
2012,06,05,14,13,15.50
2012,06,05,14,14,15.50
2012,06,05,14,15,15.50
2012,06,05,14,16,15.50
2012,06,05,14,17,15.60
2012,06,05,14,18,15.60
2012,06,05,14,19,15.60
2012,06,05,14,20,15.70
2012,06,05,14,21,15.70
2012,06,05,14,22,15.70
2012,06,05,14,23,15.70
2012,06,05,14,24,15.70
2012,06,05,14,25,15.70
2012,06,05,14,26,15.80
2012,06,05,14,27,15.90
2012,06,05,14,28,15.90
2012,06,05,14,29,16.00
2012,06,05,14,30,16.00
2012,06,05,14,31,16.10
2012,06,05,14,32,16.10
2012,06,05,14,33,16.10
2012,06,05,14,34,16.10
2012,06,05,14,35,16.00
2012,06,05,14,36,16.00
2012,06,05,14,37,16.00
2012,06,05,14,38,16.00
2012,06,05,14,39,15.90
2012,06,05,14,40,15.90
2012,06,05,14,41,15.90
2012,06,05,14,42,15.90
2012,06,05,14,43,15.80
2012,06,05,14,44,15.80
2012,06,05,14,45,15.80
2012,06,05,14,46,15.80
2012,06,05,14,47,15.80
2012,06,05,14,48,15.80
2012,06,05,14,49,15.80
2012,06,05,14,50,15.80
2012,06,05,14,51,15.70
2012,06,05,14,52,15.70
2012,06,05,14,53,15.70
2012,06,05,14,54,15.70
2012,06,05,14,55,15.70
2012,06,05,14,56,15.80
2012,06,05,14,57,15.80
2012,06,05,14,58,15.90
2012,06,05,14,59,15.90
2012,06,05,15,00,15.90
2012,06,05,15,01,15.90
2012,06,05,15,02,15.80
2012,06,05,15,03,15.70
2012,06,05,15,04,15.70
2012,06,05,15,05,15.60
2012,06,05,15,06,15.60
2012,06,05,15,07,15.50
2012,06,05,15,08,15.50
2012,06,05,15,09,15.50
2012,06,05,15,10,15.50
2012,06,05,15,11,15.60
2012,06,05,15,12,15.50
2012,06,05,15,13,15.50
2012,06,05,15,14,15.50
2012,06,05,15,15,15.60
2012,06,05,15,16,15.50
2012,06,05,15,17,15.50
2012,06,05,15,18,15.50
2012,06,05,15,19,15.40
2012,06,05,15,20,15.40
2012,06,05,15,21,15.30
2012,06,05,15,22,15.30
2012,06,05,15,23,15.30
2012,06,05,15,24,15.30
2012,06,05,15,25,15.20
2012,06,05,15,26,15.20
2012,06,05,15,27,15.20
2012,06,05,15,28,15.10
2012,06,05,15,29,15.00
2012,06,05,15,30,15.00
2012,06,05,15,31,15.00
2012,06,05,15,32,15.00
2012,06,05,15,33,15.00
2012,06,05,15,34,15.00
2012,06,05,15,35,15.00
2012,06,05,15,36,15.00
2012,06,05,15,37,14.90
2012,06,05,15,38,14.90
2012,06,05,15,39,14.80
2012,06,05,15,40,14.80
2012,06,05,15,41,14.90
2012,06,05,15,42,14.90
2012,06,05,15,43,14.90
2012,06,05,15,44,14.90
2012,06,05,15,45,14.90
2012,06,05,15,46,15.00
2012,06,05,15,47,15.00
2012,06,05,15,48,15.00
2012,06,05,15,49,15.00
2012,06,05,15,50,15.00
2012,06,05,15,51,15.00
2012,06,05,15,52,15.00
2012,06,05,15,53,15.00
2012,06,05,15,54,15.00
2012,06,05,15,55,15.00
2012,06,05,15,56,15.00
2012,06,05,15,57,15.00
2012,06,05,15,58,15.00
2012,06,05,15,59,15.00
2012,06,05,16,00,15.00
2012,06,05,16,01,15.00
2012,06,05,16,02,15.00
2012,06,05,16,03,15.00
2012,06,05,16,04,15.00
2012,06,05,16,05,15.10
2012,06,05,16,06,15.10
2012,06,05,16,07,15.20
2012,06,05,16,08,15.20
2012,06,05,16,09,15.20
2012,06,05,16,10,15.30
2012,06,05,16,11,15.30
2012,06,05,16,12,15.30
2012,06,05,16,13,15.30
2012,06,05,16,14,15.30
2012,06,05,16,15,15.30
2012,06,05,16,16,15.30
2012,06,05,16,17,15.30
2012,06,05,16,18,15.20
2012,06,05,16,19,15.20
2012,06,05,16,20,15.10
2012,06,05,16,21,15.10
2012,06,05,16,22,15.10
2012,06,05,16,23,15.10
2012,06,05,16,24,15.00
2012,06,05,16,25,15.10
2012,06,05,16,26,15.10
2012,06,05,16,27,15.20
2012,06,05,16,28,15.20
2012,06,05,16,29,15.20
2012,06,05,16,30,15.20
2012,06,05,16,31,15.20
2012,06,05,16,32,15.30
2012,06,05,16,33,15.30
2012,06,05,16,34,15.30
2012,06,05,16,35,15.30
2012,06,05,16,36,15.40
2012,06,05,16,37,15.40
2012,06,05,16,38,15.40
2012,06,05,16,39,15.50
2012,06,05,16,40,15.50
2012,06,05,16,41,15.50
2012,06,05,16,42,15.50
2012,06,05,16,43,15.50
2012,06,05,16,44,15.50
2012,06,05,16,45,15.60
2012,06,05,16,46,15.50
2012,06,05,16,47,15.50
2012,06,05,16,48,15.40
2012,06,05,16,49,15.40
2012,06,05,16,50,15.40
2012,06,05,16,51,15.40
2012,06,05,16,52,15.40
2012,06,05,16,53,15.40
2012,06,05,16,54,15.40
2012,06,05,16,55,15.40
2012,06,05,16,56,15.40
2012,06,05,16,57,15.40
2012,06,05,16,58,15.40
2012,06,05,16,59,15.40
2012,06,05,17,00,15.50
2012,06,05,17,01,15.50
2012,06,05,17,02,15.60
2012,06,05,17,03,15.60
2012,06,05,17,04,15.60
2012,06,05,17,05,15.60
2012,06,05,17,06,15.60
2012,06,05,17,07,15.60
2012,06,05,17,08,15.60
2012,06,05,17,09,15.60
2012,06,05,17,10,15.60
2012,06,05,17,11,15.60
2012,06,05,17,12,15.60
2012,06,05,17,13,15.60
2012,06,05,17,14,15.70
2012,06,05,17,15,15.70
2012,06,05,17,16,15.70
2012,06,05,17,17,15.70
2012,06,05,17,18,15.70
2012,06,05,17,19,15.70
2012,06,05,17,20,15.70
2012,06,05,17,21,15.70
2012,06,05,17,22,15.70
2012,06,05,17,23,15.70
2012,06,05,17,24,15.70
2012,06,05,17,25,15.70
2012,06,05,17,26,15.80
2012,06,05,17,27,15.80
2012,06,05,17,28,15.80
2012,06,05,17,29,15.90
2012,06,05,17,30,15.90
2012,06,05,17,31,15.90
2012,06,05,17,32,16.00
2012,06,05,17,33,16.00
2012,06,05,17,34,16.00